Time,TemperatureF,DewpointF,PressureIn,WindDirection,WindDirectionDegrees,WindSpeedMPH,WindSpeedGustMPH,Humidity,HourlyPrecipIn,Conditions,Clouds,dailyrainin,SoftwareType,DateUTC
2013-03-06 00:02:00,32.0,27.0,30.02,WNW,301,8.0,14.0,82,0.00,,,0.11,,2013-03-06 06:02:00,
2013-03-06 00:11:00,32.0,27.0,30.02,WNW,301,8.0,14.0,82,0.00,,,0.11,,2013-03-06 06:11:00,
2013-03-06 00:22:00,32.0,27.0,30.02,West,274,9.0,18.0,81,0.00,,,0.11,,2013-03-06 06:22:00,
2013-03-06 00:32:00,32.0,27.0,30.02,NW,306,10.0,18.0,81,0.00,,,0.11,,2013-03-06 06:32:00,
2013-03-06 00:42:00,32.0,27.0,30.02,NW,306,10.0,18.0,81,0.00,,,0.11,,2013-03-06 06:42:00,
2013-03-06 00:52:00,32.0,27.0,30.03,WNW,289,10.0,19.0,81,0.00,,,0.11,,2013-03-06 06:52:00,
2013-03-06 01:01:00,32.0,27.0,30.04,NW,307,10.0,22.0,81,0.00,,,0.11,,2013-03-06 07:01:00,
2013-03-06 01:11:00,32.0,27.0,30.04,NW,307,10.0,22.0,81,0.00,,,0.11,,2013-03-06 07:11:00,
2013-03-06 01:22:00,32.0,27.0,30.05,WNW,302,11.0,22.0,81,0.00,,,0.11,,2013-03-06 07:22:00,
2013-03-06 01:32:00,32.0,27.0,30.06,NW,311,12.0,21.0,81,0.00,,,0.11,,2013-03-06 07:32:00,
2013-03-06 01:42:00,32.0,27.0,30.06,NW,311,12.0,21.0,81,0.00,,,0.11,,2013-03-06 07:42:00,
2013-03-06 01:52:00,32.0,27.0,30.06,West,269,9.0,19.0,81,0.00,,,0.11,,2013-03-06 07:52:00,
2013-03-06 02:01:00,32.0,27.0,30.06,WNW,283,9.0,18.0,81,0.00,,,0.11,,2013-03-06 08:01:00,
2013-03-06 02:11:00,32.0,27.0,30.06,WNW,283,9.0,18.0,81,0.00,,,0.11,,2013-03-06 08:11:00,
2013-03-06 02:21:00,32.0,27.0,30.07,NW,316,13.0,23.0,80,0.00,,,0.11,,2013-03-06 08:21:00,
2013-03-06 02:32:00,32.0,27.0,30.07,NNW,341,11.0,27.0,80,0.00,,,0.11,,2013-03-06 08:32:00,
2013-03-06 02:42:00,32.0,27.0,30.07,NNW,341,11.0,27.0,80,0.00,,,0.11,,2013-03-06 08:42:00,
2013-03-06 02:52:00,32.0,27.0,30.08,WNW,295,10.0,18.0,81,0.00,,,0.11,,2013-03-06 08:52:00,
2013-03-06 03:01:00,32.0,27.0,30.08,NW,313,10.0,20.0,82,0.00,,,0.11,,2013-03-06 09:01:00,
2013-03-06 03:12:00,32.0,27.0,30.08,NW,313,10.0,20.0,82,0.00,,,0.11,,2013-03-06 09:12:00,
2013-03-06 03:21:00,32.0,27.0,30.09,North,355,12.0,20.0,82,0.00,,,0.11,,2013-03-06 09:21:00,
2013-03-06 03:31:00,31.0,26.0,30.10,North,355,12.0,21.0,82,0.00,,,0.11,,2013-03-06 09:31:00,
2013-03-06 03:42:00,31.0,26.0,30.10,North,355,12.0,21.0,82,0.00,,,0.11,,2013-03-06 09:42:00,
2013-03-06 03:52:00,31.0,26.0,30.11,NW,310,10.0,18.0,83,0.00,,,0.11,,2013-03-06 09:52:00,
2013-03-06 04:01:00,31.0,27.0,30.11,WNW,294,8.0,14.0,84,0.00,,,0.11,,2013-03-06 10:01:00,
2013-03-06 04:11:00,31.0,27.0,30.11,WNW,294,8.0,14.0,84,0.00,,,0.11,,2013-03-06 10:11:00,
2013-03-06 04:21:00,31.0,26.0,30.12,NW,312,11.0,22.0,83,0.00,,,0.11,,2013-03-06 10:21:00,
2013-03-06 04:32:00,31.0,26.0,30.13,NNW,329,9.0,17.0,83,0.00,,,0.11,,2013-03-06 10:32:00,
2013-03-06 04:42:00,31.0,26.0,30.13,NNW,329,9.0,17.0,83,0.00,,,0.11,,2013-03-06 10:42:00,
2013-03-06 04:52:00,31.0,27.0,30.14,NW,323,10.0,18.0,84,0.00,,,0.11,,2013-03-06 10:52:00,
2013-03-06 05:02:00,31.0,27.0,30.15,North,355,9.0,14.0,84,0.00,,,0.11,,2013-03-06 11:02:00,
2013-03-06 05:11:00,31.0,27.0,30.15,North,355,9.0,14.0,84,0.00,,,0.11,,2013-03-06 11:11:00,
2013-03-06 05:22:00,31.0,27.0,30.16,NNW,338,8.0,14.0,84,0.00,,,0.11,,2013-03-06 11:22:00,
2013-03-06 05:32:00,31.0,27.0,30.17,North,360,8.0,15.0,84,0.00,,,0.11,,2013-03-06 11:32:00,
2013-03-06 05:42:00,31.0,27.0,30.17,North,360,8.0,15.0,84,0.00,,,0.11,,2013-03-06 11:42:00,
2013-03-06 05:52:00,31.0,27.0,30.18,NW,313,8.0,14.0,84,0.00,,,0.11,,2013-03-06 11:52:00,
2013-03-06 06:02:00,31.0,27.0,30.19,WNW,288,8.0,14.0,84,0.00,,,0.11,,2013-03-06 12:02:00,
2013-03-06 06:11:00,31.0,27.0,30.19,WNW,288,8.0,14.0,84,0.00,,,0.11,,2013-03-06 12:11:00,
2013-03-06 06:21:00,31.0,27.0,30.21,NNW,339,9.0,18.0,84,0.00,,,0.11,,2013-03-06 12:21:00,
2013-03-06 06:32:00,31.0,27.0,30.21,NW,310,8.0,14.0,84,0.00,,,0.11,,2013-03-06 12:32:00,
2013-03-06 06:42:00,31.0,27.0,30.21,NW,310,8.0,14.0,84,0.00,,,0.11,,2013-03-06 12:42:00,
2013-03-06 06:52:00,31.0,27.0,30.22,NW,304,9.0,15.0,84,0.00,,,0.11,,2013-03-06 12:52:00,
2013-03-06 07:02:00,31.0,27.0,30.23,NNW,341,9.0,16.0,84,0.00,,,0.11,,2013-03-06 13:02:00,
2013-03-06 07:12:00,31.0,27.0,30.23,NNW,341,9.0,16.0,84,0.00,,,0.11,,2013-03-06 13:12:00,
2013-03-06 07:22:00,31.0,27.0,30.24,NNW,332,7.0,22.0,84,0.00,,,0.11,,2013-03-06 13:22:00,
2013-03-06 07:32:00,31.0,27.0,30.24,North,355,7.0,13.0,84,0.00,,,0.11,,2013-03-06 13:32:00,
2013-03-06 07:42:00,31.0,27.0,30.24,North,355,7.0,13.0,84,0.00,,,0.11,,2013-03-06 13:42:00,
2013-03-06 07:52:00,31.0,27.0,30.26,NW,309,9.0,13.0,84,0.00,,,0.11,,2013-03-06 13:52:00,
2013-03-06 08:01:00,31.0,26.0,30.26,WNW,292,9.0,14.0,83,0.00,,,0.11,,2013-03-06 14:01:00,
2013-03-06 08:11:00,31.0,26.0,30.26,WNW,292,9.0,14.0,83,0.00,,,0.11,,2013-03-06 14:11:00,
2013-03-06 08:22:00,31.0,26.0,30.27,NNW,327,9.0,14.0,83,0.00,,,0.11,,2013-03-06 14:22:00,
2013-03-06 08:32:00,32.0,27.0,30.28,WNW,292,8.0,15.0,83,0.00,,,0.11,,2013-03-06 14:32:00,
2013-03-06 08:42:00,32.0,27.0,30.28,WNW,292,8.0,15.0,83,0.00,,,0.11,,2013-03-06 14:42:00,
2013-03-06 08:52:00,32.0,27.0,30.29,NW,304,8.0,17.0,82,0.00,,,0.11,,2013-03-06 14:52:00,
2013-03-06 09:02:00,32.0,27.0,30.30,NW,315,8.0,14.0,82,0.00,,,0.11,,2013-03-06 15:02:00,
2013-03-06 09:11:00,32.0,27.0,30.30,NW,315,8.0,14.0,82,0.00,,,0.11,,2013-03-06 15:11:00,
2013-03-06 09:21:00,32.0,27.0,30.30,North,355,9.0,14.0,82,0.00,,,0.11,,2013-03-06 15:21:00,
2013-03-06 09:32:00,32.0,27.0,30.32,NNW,345,7.0,14.0,82,0.00,,,0.11,,2013-03-06 15:32:00,
2013-03-06 09:42:00,32.0,27.0,30.32,NNW,345,7.0,14.0,82,0.00,,,0.11,,2013-03-06 15:42:00,
2013-03-06 09:52:00,32.0,27.0,30.32,NW,321,8.0,14.0,82,0.00,,,0.11,,2013-03-06 15:52:00,
2013-03-06 10:01:00,32.0,27.0,30.32,NNW,336,6.0,14.0,82,0.00,,,0.11,,2013-03-06 16:01:00,
2013-03-06 10:11:00,32.0,27.0,30.32,NNW,336,6.0,14.0,82,0.00,,,0.11,,2013-03-06 16:11:00,
2013-03-06 10:21:00,32.0,27.0,30.33,NW,326,7.0,14.0,82,0.00,,,0.11,,2013-03-06 16:21:00,
2013-03-06 10:32:00,32.0,27.0,30.33,NNW,339,9.0,16.0,81,0.00,,,0.11,,2013-03-06 16:32:00,
2013-03-06 10:42:00,32.0,27.0,30.33,NNW,339,9.0,16.0,81,0.00,,,0.11,,2013-03-06 16:42:00,
2013-03-06 10:52:00,31.0,26.0,30.34,WNW,300,10.0,14.0,80,0.00,,,0.11,,2013-03-06 16:52:00,
2013-03-06 11:01:00,32.0,27.0,30.35,NW,317,6.0,14.0,81,0.00,,,0.11,,2013-03-06 17:01:00,
2013-03-06 11:11:00,32.0,27.0,30.35,NW,317,6.0,14.0,81,0.00,,,0.11,,2013-03-06 17:11:00,
2013-03-06 11:21:00,32.0,26.0,30.35,NNW,338,8.0,14.0,79,0.00,,,0.11,,2013-03-06 17:21:00,
2013-03-06 11:32:00,32.0,26.0,30.35,NW,321,8.0,14.0,79,0.00,,,0.11,,2013-03-06 17:32:00,
2013-03-06 11:42:00,32.0,26.0,30.35,NW,321,8.0,14.0,79,0.00,,,0.11,,2013-03-06 17:42:00,
2013-03-06 11:53:00,33.0,27.0,30.36,NNW,331,8.0,13.0,79,0.00,,,0.11,,2013-03-06 17:53:00,
2013-03-06 12:02:00,32.0,27.0,30.36,North,355,8.0,13.0,80,0.00,,,0.11,,2013-03-06 18:02:00,
2013-03-06 12:28:00,32.0,27.0,30.36,WNW,296,7.0,13.0,80,0.00,,,0.10,,2013-03-06 18:28:00,
2013-03-06 12:42:00,32.0,27.0,30.36,NW,313,8.0,15.0,80,0.00,,,0.10,,2013-03-06 18:42:00,
2013-03-06 12:52:00,33.0,27.0,30.36,North,355,7.0,12.0,79,0.00,,,0.10,,2013-03-06 18:52:00,
2013-03-06 13:02:00,33.0,27.0,30.35,NW,318,8.0,14.0,78,0.00,,,0.10,,2013-03-06 19:02:00,
2013-03-06 13:11:00,33.0,27.0,30.35,NW,318,8.0,14.0,78,0.00,,,0.10,,2013-03-06 19:11:00,
2013-03-06 13:22:00,33.0,27.0,30.35,NNW,344,8.0,13.0,78,0.00,,,0.08,,2013-03-06 19:22:00,
2013-03-06 13:32:00,33.0,28.0,30.35,NNW,340,5.0,10.0,80,0.00,,,0.08,,2013-03-06 19:32:00,
2013-03-06 13:43:00,33.0,28.0,30.35,NNW,340,5.0,10.0,80,0.00,,,0.08,,2013-03-06 19:43:00,
2013-03-06 13:53:00,33.0,27.0,30.35,NNW,345,7.0,13.0,79,0.00,,,0.08,,2013-03-06 19:53:00,
2013-03-06 14:01:00,33.0,27.0,30.35,NNW,345,6.0,12.0,79,0.00,,,0.08,,2013-03-06 20:01:00,
2013-03-06 14:12:00,33.0,27.0,30.35,NNW,345,6.0,12.0,79,0.00,,,0.08,,2013-03-06 20:12:00,
2013-03-06 14:22:00,33.0,28.0,30.35,NNE,25,4.0,10.0,80,0.00,,,0.06,,2013-03-06 20:22:00,
2013-03-06 14:32:00,33.0,27.0,30.36,NNW,343,5.0,11.0,79,0.00,,,0.06,,2013-03-06 20:32:00,
2013-03-06 14:42:00,33.0,27.0,30.36,NNW,343,5.0,11.0,79,0.00,,,0.06,,2013-03-06 20:42:00,
2013-03-06 14:53:00,33.0,28.0,30.36,NW,306,4.0,10.0,80,0.00,,,0.06,,2013-03-06 20:53:00,
2013-03-06 15:02:00,33.0,27.0,30.36,WNW,286,5.0,10.0,79,0.00,,,0.06,,2013-03-06 21:02:00,
2013-03-06 15:11:00,33.0,27.0,30.36,WNW,286,5.0,10.0,79,0.00,,,0.06,,2013-03-06 21:11:00,
2013-03-06 15:22:00,33.0,27.0,30.36,NNW,331,6.0,13.0,77,0.00,,,0.02,,2013-03-06 21:22:00,
2013-03-06 15:32:00,33.0,27.0,30.36,NNW,331,6.0,13.0,77,0.00,,,0.02,,2013-03-06 21:32:00,
2013-03-06 15:42:00,33.0,27.0,30.36,NNW,331,6.0,13.0,77,0.00,,,0.02,,2013-03-06 21:42:00,
2013-03-06 15:52:00,33.0,27.0,30.36,NNW,340,5.0,10.0,78,0.00,,,0.02,,2013-03-06 21:52:00,
2013-03-06 16:01:00,33.0,27.0,30.37,NNW,346,6.0,12.0,77,0.00,,,0.02,,2013-03-06 22:01:00,
2013-03-06 16:11:00,33.0,27.0,30.37,NNW,346,6.0,12.0,77,0.00,,,0.02,,2013-03-06 22:11:00,
2013-03-06 16:22:00,33.0,27.0,30.37,NW,325,6.0,10.0,77,0.00,,,0.01,,2013-03-06 22:22:00,
2013-03-06 16:32:00,33.0,27.0,30.37,NW,317,6.0,11.0,79,0.00,,,0.01,,2013-03-06 22:32:00,
2013-03-06 16:42:00,33.0,27.0,30.37,NW,317,6.0,11.0,79,0.00,,,0.01,,2013-03-06 22:42:00,
2013-03-06 16:52:00,33.0,28.0,30.37,WNW,296,3.0,10.0,80,0.00,,,0.01,,2013-03-06 22:52:00,
2013-03-06 17:01:00,33.0,27.0,30.38,NNW,345,5.0,10.0,79,0.00,,,0.01,,2013-03-06 23:01:00,
2013-03-06 17:11:00,33.0,27.0,30.38,NNW,345,5.0,10.0,79,0.00,,,0.01,,2013-03-06 23:11:00,
2013-03-06 17:21:00,33.0,27.0,30.39,NNW,345,3.0,8.0,79,0.00,,,0.00,,2013-03-06 23:21:00,
2013-03-06 17:32:00,32.0,26.0,30.39,NNW,327,4.0,13.0,78,0.00,,,0.00,,2013-03-06 23:32:00,
2013-03-06 17:42:00,32.0,26.0,30.39,NNW,327,4.0,13.0,78,0.00,,,0.00,,2013-03-06 23:42:00,
2013-03-06 17:52:00,32.0,26.0,30.39,NW,325,4.0,10.0,78,0.00,,,0.00,,2013-03-06 23:52:00,
2013-03-06 18:01:00,32.0,26.0,30.40,NNW,330,5.0,10.0,79,0.00,,,0.00,,2013-03-07 00:01:00,
2013-03-06 18:11:00,32.0,26.0,30.40,NNW,330,5.0,10.0,79,0.00,,,0.00,,2013-03-07 00:11:00,
2013-03-06 18:21:00,32.0,26.0,30.40,North,5,3.0,7.0,79,0.00,,,0.00,,2013-03-07 00:21:00,
2013-03-06 18:32:00,32.0,27.0,30.40,NNW,340,4.0,7.0,80,0.00,,,0.00,,2013-03-07 00:32:00,
2013-03-06 18:42:00,32.0,27.0,30.40,NNW,340,4.0,7.0,80,0.00,,,0.00,,2013-03-07 00:42:00,
2013-03-06 18:52:00,32.0,27.0,30.40,North,350,3.0,8.0,80,0.00,,,0.00,,2013-03-07 00:52:00,
2013-03-06 19:01:00,32.0,27.0,30.40,NNE,16,0.0,8.0,81,0.00,,,0.00,,2013-03-07 01:01:00,
2013-03-06 19:11:00,32.0,27.0,30.40,NNE,16,0.0,8.0,81,0.00,,,0.00,,2013-03-07 01:11:00,
2013-03-06 19:21:00,32.0,27.0,30.40,NNE,16,1.0,6.0,81,0.00,,,0.00,,2013-03-07 01:21:00,
2013-03-06 19:31:00,31.0,26.0,30.40,NNW,342,0.0,4.0,80,0.00,,,0.00,,2013-03-07 01:31:00,
2013-03-06 19:42:00,31.0,26.0,30.40,NNW,342,0.0,4.0,80,0.00,,,0.00,,2013-03-07 01:42:00,
2013-03-06 19:52:00,31.0,26.0,30.40,NNW,346,0.0,1.0,81,0.00,,,0.00,,2013-03-07 01:52:00,
2013-03-06 20:01:00,31.0,26.0,30.40,NNW,343,0.0,4.0,81,0.00,,,0.00,,2013-03-07 02:01:00,
2013-03-06 20:11:00,31.0,26.0,30.40,NNW,343,0.0,4.0,81,0.00,,,0.00,,2013-03-07 02:11:00,
2013-03-06 20:21:00,31.0,26.0,30.40,NE,36,0.0,0.0,80,0.00,,,0.00,,2013-03-07 02:21:00,
2013-03-06 20:32:00,31.0,26.0,30.40,North,355,2.0,5.0,81,0.00,,,0.00,,2013-03-07 02:32:00,
2013-03-06 20:41:00,31.0,26.0,30.40,North,355,2.0,5.0,81,0.00,,,0.00,,2013-03-07 02:41:00,
2013-03-06 20:52:00,31.0,26.0,30.40,North,355,2.0,5.0,81,0.00,,,0.00,,2013-03-07 02:52:00,
2013-03-06 21:02:00,31.0,26.0,30.40,NNW,333,0.0,0.0,81,0.00,,,0.00,,2013-03-07 03:02:00,
2013-03-06 21:11:00,31.0,26.0,30.40,NNW,333,0.0,0.0,81,0.00,,,0.00,,2013-03-07 03:11:00,
2013-03-06 21:21:00,31.0,26.0,30.40,North,360,2.0,9.0,81,0.00,,,0.00,,2013-03-07 03:21:00,
2013-03-06 21:32:00,31.0,26.0,30.40,NNW,343,0.0,5.0,80,0.00,,,0.00,,2013-03-07 03:32:00,
2013-03-06 21:42:00,31.0,26.0,30.40,NNW,343,0.0,5.0,80,0.00,,,0.00,,2013-03-07 03:42:00,
2013-03-06 21:52:00,31.0,25.0,30.40,North,11,5.0,8.0,79,0.00,,,0.00,,2013-03-07 03:52:00,
2013-03-06 22:01:00,31.0,26.0,30.41,NW,310,0.0,8.0,80,0.00,,,0.00,,2013-03-07 04:01:00,
2013-03-06 22:11:00,31.0,26.0,30.41,NW,310,0.0,8.0,80,0.00,,,0.00,,2013-03-07 04:11:00,
2013-03-06 22:21:00,31.0,25.0,30.40,North,355,0.0,2.0,79,0.00,,,0.00,,2013-03-07 04:21:00,
2013-03-06 22:31:00,30.0,25.0,30.40,North,351,0.0,0.0,80,0.00,,,0.00,,2013-03-07 04:31:00,
2013-03-06 22:42:00,30.0,25.0,30.40,North,351,0.0,0.0,80,0.00,,,0.00,,2013-03-07 04:42:00,
2013-03-06 22:52:00,30.0,25.0,30.40,NNE,27,0.0,1.0,81,0.00,,,0.00,,2013-03-07 04:52:00,
2013-03-06 23:01:00,30.0,25.0,30.40,NNW,340,0.0,2.0,80,0.00,,,0.00,,2013-03-07 05:01:00,
2013-03-06 23:12:00,30.0,25.0,30.40,NNW,340,0.0,2.0,80,0.00,,,0.00,,2013-03-07 05:12:00,
2013-03-06 23:22:00,30.0,25.0,30.40,NNE,16,0.0,0.0,80,0.00,,,0.00,,2013-03-07 05:22:00,
2013-03-06 23:32:00,30.0,25.0,30.40,WNW,298,1.0,4.0,81,0.00,,,0.00,,2013-03-07 05:32:00,
2013-03-06 23:42:00,30.0,25.0,30.40,WNW,298,1.0,4.0,81,0.00,,,0.00,,2013-03-07 05:42:00,
2013-03-06 23:52:00,30.0,25.0,30.40,NW,309,2.0,4.0,81,0.00,,,0.00,,2013-03-07 05:52:00,